Regional Weather Roundup
Issued by NWS

Home | Current Version | Previous Version | Text Only | Print | Product List | Glossary Off
Versions: 1 2 3 4 5 6 7 8 9 10 11 12 13 14 15 16 17 18 19 20 21 22 23 24 25 26 27 28 29 30 31 32 33 34 35 36 37 38 39 40 41 42 43 44 45 46 47 48 49 50

540
ASUS44 KJAN 310603
RWRMS

MISSISSIPPI HOURLY WEATHER ROUNDUP
NATIONAL WEATHER SERVICE JACKSON MS
100 AM CDT FRI OCT 31 2014

NOTE: "FAIR: INDICATES FEW OR NO CLOUDS BELOW 12,000 FEET WITH NO
SIGNIFICANT WEATHER AND/OR OBSTRUCTIONS TO VISIBILITY.

MSZ001>002-007>008-010>013-018>021-025>028-034>036-310700-
NORTHWEST MISSISSIPPI

CITY           SKY/WX    TMP DP  RH WIND       PRES   REMARKS
CLARKSDALE     FAIR      57  52  82 SW5       30.01F
CLEVELAND      FAIR      55  51  86 SW5       30.02S
GREENWOOD      PTCLDY    51  49  92 CALM      30.03F
6HR MIN TEMP:  50; 6HR MAX TEMP:  56;

GREENVILLE     CLEAR     54  47  77 SW6       30.03F
6HR MIN TEMP:  51; 6HR MAX TEMP:  61;

GRENADA        FAIR      45  45 100 CALM      30.03
OLIVE BRANCH   CLEAR     50  48  93 S6        29.99F
OXFORD         MOCLDY    48  46  93 SW5       30.02F
TUNICA         CLEAR     54  50  87 SW6       30.00F
$$

MSZ003>006-009-014>017-022>024-029>033-037>039-310700-
NORTHEAST MISSISSIPPI

CITY           SKY/WX    TMP DP  RH WIND       PRES   REMARKS
COLUMBUS AFB   PTCLDY    47  45  94 SE1       30.02F
6HR MIN TEMP:  46; 6HR MAX TEMP:  54;

CORINTH        CLOUDY    48  46  93 W6        30.02R
GOLDN TRIANGLE MOCLDY    48  43  81 CALM      30.02F
STARKVILLE     MOCLDY    46  45  93 CALM      30.03F
TUPELO         MOCLDY    50  46  86 S3        30.01F
6HR MIN TEMP:  50; 6HR MAX TEMP:  56;

$$

MSZ040-058-310700-
CENTRAL MISSISSIPPI

CITY           SKY/WX    TMP DP  RH WIND       PRES   REMARKS
JACKSON INTL   PTCLDY    47  43  86 CALM      30.06S
6HR MIN TEMP:  46; 6HR MAX TEMP:  58;

JACKSON HAWKNS MOCLDY    51  46  83 CALM      30.06F
6HR MIN TEMP:  51; 6HR MAX TEMP:  63;

MERIDIAN KEY   CLEAR     43  40  89 CALM      30.04F
6HR MIN TEMP:  42; 6HR MAX TEMP:  55;

MERIDIAN NAS   CLEAR     44  41  89 CALM      30.04F
6HR MIN TEMP:  44; 6HR MAX TEMP:  58;

RAYMOND        FAIR      48  45  87 CALM      30.06F
VICKSBURG      PTCLDY    47  45  93 CALM      30.06F
6HR MIN TEMP:  44; 6HR MAX TEMP:  54;

$$

MSZ059>079-310700-
SOUTH MISSISSIPPI

CITY           SKY/WX    TMP DP  RH WIND       PRES   REMARKS
BROOKHAVEN     FAIR      46  45  93 CALM      30.08S
COLUMBIA         N/A     43  41  93 MISG      30.05
HATTIESBURG    CLEAR     46  43  89 CALM      30.06S
6HR MIN TEMP:  46; 6HR MAX TEMP:  59;

MCCOMB         CLEAR     49  44  83 NW3       30.07S
6HR MIN TEMP:  48; 6HR MAX TEMP:  61;

NATCHEZ        PTCLDY    48  45  87 S3        30.08F
6HR MIN TEMP:  48; 6HR MAX TEMP:  57;

PINE BELT      CLEAR     45  41  87 CALM      30.06R
6HR MIN TEMP:  45; 6HR MAX TEMP:  54;

$$

MSZ080>082-310700-
COASTAL MISSISSIPPI

CITY           SKY/WX    TMP DP  RH WIND       PRES   REMARKS
BILOXI         CLEAR     56  47  70 NW3       30.04R
6HR MIN TEMP:  55; 6HR MAX TEMP:  66;

PASCAGOULA     CLEAR     42  40  92 CALM      30.03F
6HR MIN TEMP:  41; 6HR MAX TEMP:  53;

GULFPORT       CLEAR     49  45  86 NW3       30.04R
6HR MIN TEMP:  49; 6HR MAX TEMP:  61;

$$



USA.gov is the U.S. government's official web portal to all federal, state and local government web resources and services.